Regional Weather Roundup
Issued by NWS State College, PA

Home | Current Version | Previous Version | Graphics & Text | Print | Product List | Glossary On
Versions: 1 2 3 4 5 6 7 8 9 10 11 12 13 14 15 16 17 18 19 20 21 22 23 24 25 26 27 28 29 30 31 32 33 34 35 36 37 38 39 40 41 42 43 44 45 46 47 48 49 50
000
ASUS41 KCTP 302310
RWRCTP

REGIONAL WEATHER ROUNDUP
NATIONAL WEATHER SERVICE STATE COLLEGE PA
700 PM EDT MON MAY 30 2016

Note: "fair" indicates few or no clouds below 12,000 feet with no
significant weather and/or obstructions to visibility.

* = STATION THAT DOES NOT REPORT PRECIPITATION /E.G. RAIN...SNOW...ETC/
    THUNDER OR FOG.

PAZ002>004-007>009-013>016-020>023-029>032-310000-
WESTERN PENNSYLVANIA

CITY           SKY/WX    TMP DP  RH WIND       PRES   REMARKS
ERIE           SUNNY     77  56  48 W7        29.97F
MEADVILLE      SUNNY     75  53  46 N7        29.99F
FRANKLIN*      SUNNY     77  54  44 N3        30.01S
NEW CASTLE     FAIR      80  54  40 NW8       29.98F
BEAVER COUNTY  NOT AVBL
BUTLER*        SUNNY     79  57  47 NW3       30.01S
PITTSBURGH INT MOSUNNY   82  54  37 NW12      29.97S
PITTSBURGH     SUNNY     80  51  36 NW9       29.96F
INDIANA*       SUNNY     79  59  50 NW8       30.00S
LATROBE        MOSUNNY   81  59  47 NW12      29.97S
WASHINGTON CO* SUNNY     81  55  41 NW6       29.98S
$$

PAZ004>006-010>012-017>019-024>028-033>037-041-042-045-046-049>053-310000-
CENTRAL PENNSYLVANIA

CITY           SKY/WX    TMP DP  RH WIND       PRES   REMARKS
BRADFORD       PTSUNNY   74  51  44 NW10      30.01S
DUBOIS         SUNNY     77  52  41 NW7       29.98S
CLEARFIELD     SUNNY     79  54  41 NW12      29.97R
JOHNSTOWN      MOSUNNY   77  53  43 NW10      30.00S
ALTOONA        CLOUDY    82  56  40 NW12      29.97R
STATE COLLEGE  MOSUNNY   82  55  39 W7        29.94R
WILLIAMSPORT   CLOUDY    75  60  59 E7        29.92R
SELINSGROVE    CLOUDY    68  64  87 CALM      29.94F
FT INDIANTOWN  DRIZZLE   73  63  68 NW17G29   29.95R
CAPITAL CITY   CLOUDY    78  61  55 NW25G33   29.96R
HARRISBURG     CLOUDY    81  67  62 NW5       29.92R
YORK           CLOUDY    79  66  64 VRB3      29.93S
$$

PAZ038>040-043-044-047-048-054-055-060>062-067>071-310000-
EASTERN PENNSYLVANIA

CITY           SKY/WX    TMP DP  RH WIND       PRES   REMARKS
SCRANTON       LGT RAIN  68  65  90 CALM      29.96R
MOUNT POCONO   HVY RAIN  60  58  92 CALM      30.03R FOG
ALLENTOWN      CLOUDY    80  62  54 SW9       29.93R
QUAKERTOWN*    CLOUDY    77  68  73 S6        29.95R
READING        CLOUDY    81  63  54 S7        29.92R
LANCASTER      CLOUDY    79  66  64 S9        29.93S
COATESVILLE    CLOUDY    73  68  83 CALM      29.97S
POTTSTOWN      CLOUDY    76  68  76 VRB5      29.96R
BLUE BELL      CLOUDY    72  68  88 S5        29.94S
DOYLESTOWN     CLOUDY    74  65  73 S6        29.94S
WILLOW GROVE   NOT AVBL
NORTH PHILA    CLOUDY    76  69  79 S8G17     29.96S
PHILADELPHIA   CLOUDY    74  68  81 S8        29.96S
$$



USA.gov is the U.S. government's official web portal to all federal, state and local government web resources and services.